FW0288 Weather Reports


time (UTC)temp
F
wind
direction
speed
knots
gust
knots
rain 1hr
in
rain 24hr
in
rain mn
in
humidity
%
barometer
mb
20260507064517 35 244 0.0 1.7 0.00 0.47 0.00 83 1018.7
20260507063009 33 213 0.0 0.0 0.00 0.47 0.00 88 1018.8
20260507061505 31 176 0.0 0.0 0.00 0.47 0.00 88 1018.8
20260507060002 30 176 0.0 0.0 0.00 0.47 0.00 87 1018.9
20260507054501 30 360 0.0 0.0 0.00 0.47 0.47 86 1019.1
20260507053001 30 360 0.0 0.0 0.00 0.47 0.47 86 1019.2
20260507051609 31 360 0.0 0.0 0.00 0.47 0.47 86 1019.4
20260507051502 31 360 0.0 0.0 0.00 0.47 0.47 85 1019.4
20260507044601 32 360 0.0 0.0 0.00 0.47 0.47 84 1019.6
20260507043100 32 360 0.0 0.0 0.00 0.47 0.47 83 1019.7
20260507041559 33 360 0.0 0.0 0.00 0.47 0.47 83 1019.8
20260507040058 33 360 0.0 0.0 0.00 0.47 0.47 82 1019.9
20260507034558 33 360 0.0 0.0 0.00 0.48 0.47 80 1020.0
20260507033057 34 360 0.0 0.0 0.00 0.48 0.47 80 1020.1
20260507031557 34 360 0.0 0.9 0.00 0.48 0.47 78 1020.0
20260507030056 35 360 0.0 0.0 0.00 0.48 0.47 76 1019.8
20260507024556 36 360 0.0 0.9 0.00 0.48 0.47 76 1019.8
20260507023055 36 171 0.0 0.9 0.00 0.48 0.47 76 1019.6
20260507021556 36 360 0.0 2.6 0.00 0.48 0.47 75 1019.5
20260507020108 37 360 0.0 0.9 0.00 0.48 0.47 75 1019.3
20260507014559 37 360 0.0 4.3 0.00 0.48 0.47 74 1019.3
20260507013053 37 360 0.0 2.6 0.00 0.48 0.47 72 1019.3
20260507011553 38 360 0.0 7.0 0.00 0.48 0.47 72 1019.4
20260507010104 38 360 0.9 4.3 0.00 0.48 0.47 71 1019.6
20260507004552 38 360 0.9 5.2 0.00 0.48 0.47 71 1019.6
20260507003051 37 153 0.9 3.5 0.00 0.48 0.47 72 1020.0
20260507001556 38 360 0.9 5.2 0.00 0.48 0.47 71 1020.0
20260507000051 38 153 0.0 0.9 0.00 0.48 0.47 71 1020.2
20260506234555 38 360 0.0 3.5 0.00 0.48 0.47 70 1020.3
20260506233049 37 360 0.9 7.8 0.00 0.48 0.47 71 1020.5
20260506231605 37 360 1.7 7.0 0.00 0.48 0.47 70 1020.4
20260506230105 36 118 1.7 5.2 0.00 0.48 0.47 72 1020.6
20260506224549 37 360 0.9 5.2 0.00 0.48 0.47 71 1020.7
20260506223047 36 360 0.0 5.2 0.00 0.48 0.47 72 1020.9
20260506221607 36 360 0.9 7.0 0.00 0.48 0.47 69 1021.1
20260506214549 37 165 0.0 2.6 0.01 0.49 0.47 70 1021.4
20260506213102 37 360 0.9 4.3 0.03 0.49 0.47 67 1021.7
20260506211541 37 189 1.7 4.3 0.06 0.49 0.47 70 1021.8
20260506210052 35 90 0.9 2.6 0.09 0.49 0.47 72 1021.9
20260506204538 35 115 0.0 2.6 0.11 0.50 0.46 75 1022.0
20260506203036 35 116 0.9 2.6 0.12 0.48 0.44 76 1022.2
20260506201539 34 360 0.0 1.7 0.14 0.45 0.41 78 1022.4
20260506200031 34 83 0.0 1.7 0.18 0.42 0.38 79 1022.3
20260506194530 34 360 0.0 1.7 0.21 0.39 0.35 79 1022.4
20260506193028 34 360 0.0 1.7 0.20 0.36 0.32 80 1022.4
20260506191527 33 360 0.0 2.6 0.17 0.31 0.27 83 1022.5
20260506190029 33 107 0.0 2.6 0.11 0.24 0.20 84 1022.6
20260506184525 32 117 0.0 3.5 0.07 0.19 0.14 87 1022.8
20260506183020 32 73 0.9 2.6 0.06 0.17 0.12 87 1022.9
20260506181518 32 22 0.0 1.7 0.05 0.15 0.10 90 1023.0
20260506180021 33 346 0.0 2.6 0.04 0.14 0.09 92 1023.0
20260506174522 33 330 0.0 0.9 0.03 0.12 0.07 93 1023.0
20260506173009 32 360 0.0 1.7 0.02 0.11 0.06 93 1022.9
20260506171508 32 306 0.0 1.7 0.02 0.10 0.05 93 1022.9
20260506170004 31 360 0.0 3.5 0.03 0.10 0.05 93 1022.8
20260506164503 31 307 0.0 4.3 0.02 0.10 0.04 93 1022.6
20260506163108 32 327 0.0 0.0 0.02 0.10 0.04 94 1022.2
20260506161558 31 325 0.0 0.0 0.02 0.09 0.03 94 1021.9
20260506160108 31 325 0.0 0.0 0.01 0.08 0.02 93 1021.7
20260506154555 31 360 0.0 0.0 0.01 0.09 0.02 94 1021.8
20260506153055 31 325 0.0 0.0 0.02 0.09 0.02 94 1021.7
20260506151552 31 360 0.0 0.0 0.01 0.08 0.01 94 1021.5
20260506150054 31 360 0.0 0.0 0.01 0.08 0.01 94 1021.4
20260506144559 31 360 0.0 0.0 0.01 0.12 0.01 94 1021.2
20260506143048 31 360 0.0 0.0 0.00 0.11 0.00 94 1021.2
20260506141547 30 360 0.0 0.0 0.00 0.11 0.00 94 1020.9
20260506140044 30 360 0.0 0.0 0.00 0.11 0.00 93 1020.9
20260506134543 30 326 0.0 0.0 0.00 0.13 0.00 93 1020.9
20260506133040 30 360 0.0 0.0 0.00 0.13 0.00 94 1020.6
20260506131543 31 360 0.0 0.0 0.00 0.13 0.00 94 1020.4
20260506130035 31 360 0.0 0.0 0.00 0.13 0.00 94 1019.9
20260506124535 31 360 0.0 0.0 0.00 0.13 0.00 94 1019.7
20260506123032 30 360 0.0 0.0 0.00 0.13 0.00 94 1019.4
20260506121530 30 360 0.0 0.0 0.00 0.13 0.00 93 1019.5
20260506120030 30 360 0.0 0.0 0.00 0.13 0.00 94 1019.1
20260506114536 30 360 0.0 0.0 0.00 0.14 0.00 93 1019.2
20260506113027 30 360 0.0 0.0 0.00 0.14 0.00 93 1019.0
20260506111525 30 360 0.0 0.0 0.00 0.14 0.00 93 1018.8
20260506110024 30 326 0.0 0.0 0.00 0.14 0.00 94 1018.5
20260506104522 30 326 0.0 0.0 0.00 0.16 0.00 93 1018.4
20260506103023 30 325 0.0 0.0 0.00 0.16 0.00 94 1018.4
20260506101520 30 326 0.0 0.0 0.00 0.16 0.00 93 1018.4
20260506100120 30 360 0.0 0.0 0.00 0.16 0.00 93 1018.5
20260506094519 30 325 0.0 0.0 0.00 0.23 0.00 93 1018.7
20260506093016 30 327 0.0 0.0 0.00 0.23 0.00 93 1018.3
20260506091518 30 360 0.0 0.0 0.00 0.23 0.00 93 1018.2
20260506084511 31 360 0.0 0.0 0.00 0.24 0.00 93 1018.1
20260506083010 31 360 0.0 0.0 0.00 0.24 0.00 93 1018.1
20260506081511 31 308 0.0 0.0 0.00 0.24 0.00 93 1017.9
20260506073005 31 311 0.0 0.0 0.00 0.24 0.00 93 1017.9
20260506071502 31 360 0.0 0.0 0.00 0.24 0.00 93 1017.8